This demonstration page uses our WeatherBlox Daily Observations layout. Learn more.

Left ArrowRight Arrow

39.08367, -84.50855

Hourly Observations for May 30, 2017

Temp ( °F °C ) Dew Point ( °F °C ) Humidity (%) Winds ( mph kmh ) Pressure ( in mb ) Visibility ( mi km ) Precip ( " mm )
12:53 am 00:53 Clear 67 19.4 59 15 76 76 SSW 7 11 29.93 1014 10 16.0934 N/A
1:53 am 01:53 Clear 63 17.2 59 15 87 87 N N/A 29.94 1014 10 16.0934 N/A
2:53 am 02:53 Clear 65 18.3 60 15.6 84 84 SW 7 11 29.94 1014 10 16.0934 N/A
3:53 am 03:53 Partly Cloudy 63 17.2 60 15.6 90 90 N N/A 29.95 1014 10 16.0934 N/A
4:53 am 04:53 Clear 60 15.6 59 15 96 96 N N/A 29.97 1015 10 16.0934 N/A
5:53 am 05:53 Clear 59 15 59 15 100 100 N N/A 29.98 1015 9 14.48406 N/A
6:09 am 06:09 Clear with Mist and Fog 58 14.4 58 14.4 100 100 N N/A 30 1016 1.25 2.011675 N/A
6:25 am 06:25 Sunny 58 14.4 58 14.4 100 100 N N/A 30.03 1017 8 12.87472 N/A
6:53 am 06:53 Sunny 58 14.4 58 14.4 100 100 N N/A 30.02 1017 9 14.48406 N/A
7:53 am 07:53 Sunny 65 18.3 61 16.1 87 87 N N/A 30.02 1017 10 16.0934 N/A
8:53 am 08:53 Sunny 69 20.6 59 15 70 70 SSW 5 7 30.02 1017 10 16.0934 N/A
9:53 am 09:53 Sunny 73 22.8 59 15 62 62 S 6 9 30.01 1016 10 16.0934 N/A
10:53 am 10:53 Sunny 76 24.4 57 13.9 52 52 SSW 9 15 30.01 1016 10 16.0934 N/A
11:53 am 11:53 Sunny 78 25.6 50 10 37 37 WSW 12 19 30.01 1016 10 16.0934 N/A
12:53 pm 12:53 Mostly Sunny 79 26.1 52 11.1 39 39 WSW 14 22 30.01 1016 10 16.0934 N/A
1:53 pm 13:53 Partly Cloudy 79 26.1 53 11.7 41 41 W 13 20 30 1016 10 16.0934 N/A
2:53 pm 14:53 Partly Cloudy 78 25.6 55 12.8 45 45 WSW 16 26 29.98 1015 10 16.0934 N/A
3:53 pm 15:53 Mostly Cloudy 80 26.7 52 11.1 38 38 W 20 31 29.98 1015 10 16.0934 N/A
4:53 pm 16:53 Sunny 80 26.7 55 12.8 42 42 W 10 17 29.98 1015 10 16.0934 N/A
5:53 pm 17:53 Partly Cloudy 80 26.7 56 13.3 44 44 WNW 12 19 29.97 1015 10 16.0934 N/A
6:53 pm 18:53 Sunny 76 24.4 54 12.2 47 47 W 9 15 29.97 1015 10 16.0934 N/A
7:53 pm 19:53 Mostly Sunny 76 24.4 53 11.7 45 45 NNW 7 11 29.97 1015 10 16.0934 N/A
8:53 pm 20:53 Sunny 72 22.2 48 8.9 43 43 W 6 9 29.99 1016 10 16.0934 N/A
9:53 pm 21:53 Clear 72 22.2 44 6.7 37 37 W 3 6 30.01 1016 10 16.0934 N/A
10:53 pm 22:53 Clear 61 16.1 53 11.7 75 75 N N/A 30.02 1017 10 16.0934 N/A
11:53 pm 23:53 Clear 58 14.4 52 11.1 81 81 N N/A 30.03 1017 10 16.0934 N/A

Powered by AerisWeather